Time,TemperatureF,DewpointF,PressureIn,WindDirection,WindDirectionDegrees,WindSpeedMPH,WindSpeedGustMPH,Humidity,HourlyPrecipIn,Conditions,Clouds,dailyrainin,SoftwareType,DateUTC
2013-01-21 00:03:00,40.0,-99.9,30.21,East,100,12.0,15.0,-999,-99.99,,,-99.99,,2013-01-21 08:03:00,
2013-01-21 00:14:00,40.0,-99.9,30.21,ESE,103,13.0,16.0,-999,-99.99,,,-99.99,,2013-01-21 08:14:00,
2013-01-21 00:23:00,40.0,-99.9,30.21,East,101,13.0,17.0,-999,-99.99,,,-99.99,,2013-01-21 08:23:00,
2013-01-21 00:33:00,40.0,-99.9,30.21,ESE,104,14.0,17.0,-999,-99.99,,,-99.99,,2013-01-21 08:33:00,
2013-01-21 00:43:00,40.0,-99.9,30.21,ESE,105,13.0,16.0,-999,-99.99,,,-99.99,,2013-01-21 08:43:00,
2013-01-21 00:53:00,40.0,-99.9,30.21,ESE,104,13.0,16.0,-999,-99.99,,,-99.99,,2013-01-21 08:53:00,
2013-01-21 01:03:00,40.0,-99.9,30.21,East,99,12.0,15.0,-999,-99.99,,,-99.99,,2013-01-21 09:03:00,
2013-01-21 01:13:00,39.0,-99.9,30.21,East,97,11.0,16.0,-999,-99.99,,,-99.99,,2013-01-21 09:13:00,
2013-01-21 01:23:00,39.0,-99.9,30.20,East,101,14.0,18.0,-999,-99.99,,,-99.99,,2013-01-21 09:23:00,
2013-01-21 01:33:00,39.0,-99.9,30.20,East,99,12.0,16.0,-999,-99.99,,,-99.99,,2013-01-21 09:33:00,
2013-01-21 01:43:00,39.0,-99.9,30.20,East,100,13.0,17.0,-999,-99.99,,,-99.99,,2013-01-21 09:43:00,
2013-01-21 01:53:00,39.0,-99.9,30.20,East,99,12.0,16.0,-999,-99.99,,,-99.99,,2013-01-21 09:53:00,
2013-01-21 02:03:00,39.0,-99.9,30.19,ESE,103,16.0,19.0,-999,-99.99,,,-99.99,,2013-01-21 10:03:00,
2013-01-21 02:12:00,39.0,-99.9,30.20,ESE,102,13.0,15.0,-999,-99.99,,,-99.99,,2013-01-21 10:12:00,
2013-01-21 02:23:00,39.0,-99.9,30.20,ESE,102,11.0,14.0,-999,-99.99,,,-99.99,,2013-01-21 10:23:00,
2013-01-21 02:33:00,39.0,-99.9,30.20,ESE,105,12.0,14.0,-999,-99.99,,,-99.99,,2013-01-21 10:33:00,
2013-01-21 02:43:00,39.0,-99.9,30.20,ESE,105,12.0,16.0,-999,-99.99,,,-99.99,,2013-01-21 10:43:00,
2013-01-21 02:53:00,39.0,-99.9,30.20,ESE,106,13.0,15.0,-999,-99.99,,,-99.99,,2013-01-21 10:53:00,
2013-01-21 03:03:00,38.0,-99.9,30.21,ESE,108,11.0,16.0,-999,-99.99,,,-99.99,,2013-01-21 11:03:00,
2013-01-21 03:13:00,38.0,-99.9,30.20,ESE,110,11.0,14.0,-999,-99.99,,,-99.99,,2013-01-21 11:13:00,
2013-01-21 03:23:00,38.0,-99.9,30.20,ESE,111,11.0,13.0,-999,-99.99,,,-99.99,,2013-01-21 11:23:00,
2013-01-21 03:33:00,38.0,-99.9,30.20,ESE,112,12.0,14.0,-999,-99.99,,,-99.99,,2013-01-21 11:33:00,
2013-01-21 03:43:00,38.0,-99.9,30.19,ESE,113,12.0,17.0,-999,-99.99,,,-99.99,,2013-01-21 11:43:00,
2013-01-21 03:53:00,38.0,-99.9,30.19,ESE,108,12.0,15.0,-999,-99.99,,,-99.99,,2013-01-21 11:53:00,
2013-01-21 04:03:00,38.0,-99.9,30.19,ESE,109,12.0,14.0,-999,-99.99,,,-99.99,,2013-01-21 12:03:00,
2013-01-21 04:12:00,38.0,-99.9,30.19,ESE,106,12.0,14.0,-999,-99.99,,,-99.99,,2013-01-21 12:12:00,
2013-01-21 04:23:00,38.0,-99.9,30.19,ESE,103,13.0,15.0,-999,-99.99,,,-99.99,,2013-01-21 12:23:00,
2013-01-21 04:33:00,38.0,-99.9,30.17,ESE,106,15.0,18.0,-999,-99.99,,,-99.99,,2013-01-21 12:33:00,
2013-01-21 04:43:00,38.0,-99.9,30.16,ESE,103,15.0,18.0,-999,-99.99,,,-99.99,,2013-01-21 12:43:00,
2013-01-21 04:53:00,38.0,-99.9,30.16,East,101,13.0,17.0,-999,-99.99,,,-99.99,,2013-01-21 12:53:00,
2013-01-21 05:03:00,38.0,-99.9,30.15,ESE,103,16.0,19.0,-999,-99.99,,,-99.99,,2013-01-21 13:03:00,
2013-01-21 05:13:00,38.0,-99.9,30.15,ESE,102,14.0,18.0,-999,-99.99,,,-99.99,,2013-01-21 13:13:00,
2013-01-21 05:23:00,38.0,-99.9,30.15,ESE,102,14.0,18.0,-999,-99.99,,,-99.99,,2013-01-21 13:23:00,
2013-01-21 05:33:00,37.0,-99.9,30.14,ESE,103,14.0,17.0,-999,-99.99,,,-99.99,,2013-01-21 13:33:00,
2013-01-21 05:43:00,38.0,-99.9,30.14,ESE,105,16.0,19.0,-999,-99.99,,,-99.99,,2013-01-21 13:43:00,
2013-01-21 05:54:00,37.0,-99.9,30.14,ESE,109,15.0,17.0,-999,-99.99,,,-99.99,,2013-01-21 13:54:00,
2013-01-21 06:04:00,37.0,-99.9,30.14,ESE,109,14.0,17.0,-999,-99.99,,,-99.99,,2013-01-21 14:04:00,
2013-01-21 06:13:00,37.0,-99.9,30.14,ESE,104,15.0,17.0,-999,-99.99,,,-99.99,,2013-01-21 14:13:00,
2013-01-21 06:23:00,37.0,-99.9,30.14,ESE,107,16.0,19.0,-999,-99.99,,,-99.99,,2013-01-21 14:23:00,
2013-01-21 06:33:00,37.0,-99.9,30.13,ESE,104,15.0,17.0,-999,-99.99,,,-99.99,,2013-01-21 14:33:00,
2013-01-21 06:43:00,38.0,-99.9,30.14,ESE,107,14.0,17.0,-999,-99.99,,,-99.99,,2013-01-21 14:43:00,
2013-01-21 06:54:00,38.0,-99.9,30.13,ESE,108,14.0,18.0,-999,-99.99,,,-99.99,,2013-01-21 14:54:00,
2013-01-21 07:03:00,37.0,-99.9,30.14,ESE,111,15.0,17.0,-999,-99.99,,,-99.99,,2013-01-21 15:03:00,
2013-01-21 07:14:00,37.0,-99.9,30.13,ESE,107,14.0,16.0,-999,-99.99,,,-99.99,,2013-01-21 15:14:00,
2013-01-21 07:23:00,37.0,-99.9,30.14,ESE,109,13.0,16.0,-999,-99.99,,,-99.99,,2013-01-21 15:23:00,
2013-01-21 07:33:00,37.0,-99.9,30.14,ESE,108,13.0,16.0,-999,-99.99,,,-99.99,,2013-01-21 15:33:00,
2013-01-21 07:43:00,37.0,-99.9,30.14,ESE,112,12.0,15.0,-999,-99.99,,,-99.99,,2013-01-21 15:43:00,
2013-01-21 07:53:00,37.0,-99.9,30.14,ESE,108,12.0,14.0,-999,-99.99,,,-99.99,,2013-01-21 15:53:00,
2013-01-21 08:04:00,37.0,-99.9,30.14,ESE,108,12.0,14.0,-999,-99.99,,,-99.99,,2013-01-21 16:04:00,
2013-01-21 08:13:00,37.0,-99.9,30.14,ESE,108,13.0,14.0,-999,-99.99,,,-99.99,,2013-01-21 16:13:00,
2013-01-21 08:24:00,37.0,-99.9,30.15,ESE,108,12.0,14.0,-999,-99.99,,,-99.99,,2013-01-21 16:24:00,
2013-01-21 08:33:00,37.0,-99.9,30.15,ESE,113,13.0,15.0,-999,-99.99,,,-99.99,,2013-01-21 16:33:00,
2013-01-21 08:44:00,37.0,-99.9,30.15,ESE,113,13.0,15.0,-999,-99.99,,,-99.99,,2013-01-21 16:44:00,
2013-01-21 08:53:00,37.0,-99.9,30.16,ESE,115,14.0,15.0,-999,-99.99,,,-99.99,,2013-01-21 16:53:00,
2013-01-21 09:03:00,37.0,-99.9,30.16,ESE,109,14.0,16.0,-999,-99.99,,,-99.99,,2013-01-21 17:03:00,
2013-01-21 09:13:00,37.0,-99.9,30.16,ESE,108,15.0,17.0,-999,-99.99,,,-99.99,,2013-01-21 17:13:00,
2013-01-21 09:23:00,37.0,-99.9,30.16,ESE,109,15.0,17.0,-999,-99.99,,,-99.99,,2013-01-21 17:23:00,
2013-01-21 09:33:00,37.0,-99.9,30.16,ESE,113,15.0,17.0,-999,-99.99,,,-99.99,,2013-01-21 17:33:00,
2013-01-21 09:43:00,38.0,-99.9,30.16,ESE,112,14.0,16.0,-999,-99.99,,,-99.99,,2013-01-21 17:43:00,
2013-01-21 09:53:00,38.0,-99.9,30.16,ESE,112,14.0,17.0,-999,-99.99,,,-99.99,,2013-01-21 17:53:00,
2013-01-21 10:03:00,39.0,-99.9,30.16,ESE,113,14.0,16.0,-999,-99.99,,,-99.99,,2013-01-21 18:03:00,
2013-01-21 10:12:00,39.0,-99.9,30.16,ESE,111,15.0,16.0,-999,-99.99,,,-99.99,,2013-01-21 18:12:00,
2013-01-21 10:23:00,40.0,-99.9,30.16,ESE,109,15.0,16.0,-999,-99.99,,,-99.99,,2013-01-21 18:23:00,
2013-01-21 10:33:00,40.0,-99.9,30.16,ESE,109,14.0,16.0,-999,-99.99,,,-99.99,,2013-01-21 18:33:00,
2013-01-21 10:43:00,41.0,-99.9,30.16,ESE,112,14.0,16.0,-999,-99.99,,,-99.99,,2013-01-21 18:43:00,
2013-01-21 10:53:00,42.0,-99.9,30.16,ESE,114,13.0,15.0,-999,-99.99,,,-99.99,,2013-01-21 18:53:00,
2013-01-21 11:03:00,42.0,-99.9,30.16,ESE,112,13.0,15.0,-999,-99.99,,,-99.99,,2013-01-21 19:03:00,
2013-01-21 11:13:00,43.0,-99.9,30.16,ESE,113,13.0,15.0,-999,-99.99,,,-99.99,,2013-01-21 19:13:00,
2013-01-21 11:23:00,43.0,-99.9,30.17,ESE,111,13.0,17.0,-999,-99.99,,,-99.99,,2013-01-21 19:23:00,
2013-01-21 11:33:00,44.0,-99.9,30.17,ESE,110,11.0,14.0,-999,-99.99,,,-99.99,,2013-01-21 19:33:00,
2013-01-21 11:43:00,44.0,-99.9,30.17,ESE,110,12.0,14.0,-999,-99.99,,,-99.99,,2013-01-21 19:43:00,
2013-01-21 11:53:00,45.0,-99.9,30.17,ESE,116,11.0,14.0,-999,-99.99,,,-99.99,,2013-01-21 19:53:00,
2013-01-21 12:04:00,45.0,-99.9,30.17,ESE,115,11.0,12.0,-999,-99.99,,,-99.99,,2013-01-21 20:04:00,
2013-01-21 12:12:00,46.0,-99.9,30.16,ESE,115,11.0,12.0,-999,-99.99,,,-99.99,,2013-01-21 20:12:00,
2013-01-21 12:23:00,47.0,-99.9,30.16,ESE,110,11.0,12.0,-999,-99.99,,,-99.99,,2013-01-21 20:23:00,
2013-01-21 12:33:00,47.0,-99.9,30.15,ESE,115,10.0,11.0,-999,-99.99,,,-99.99,,2013-01-21 20:33:00,
2013-01-21 12:43:00,48.0,-99.9,30.15,ESE,113,10.0,11.0,-999,-99.99,,,-99.99,,2013-01-21 20:43:00,
2013-01-21 12:53:00,48.0,-99.9,30.14,ESE,113,11.0,13.0,-999,-99.99,,,-99.99,,2013-01-21 20:53:00,
2013-01-21 13:04:00,49.0,-99.9,30.14,ESE,111,11.0,12.0,-999,-99.99,,,-99.99,,2013-01-21 21:04:00,
2013-01-21 13:12:00,49.0,-99.9,30.14,ESE,111,11.0,12.0,-999,-99.99,,,-99.99,,2013-01-21 21:12:00,
2013-01-21 13:23:00,50.0,-99.9,30.13,ESE,114,9.0,10.0,-999,-99.99,,,-99.99,,2013-01-21 21:23:00,
2013-01-21 13:33:00,50.0,-99.9,30.13,ESE,118,8.0,10.0,-999,-99.99,,,-99.99,,2013-01-21 21:33:00,
2013-01-21 13:43:00,51.0,-99.9,30.13,ESE,120,8.0,9.0,-999,-99.99,,,-99.99,,2013-01-21 21:43:00,
2013-01-21 13:54:00,51.0,-99.9,30.13,SE,125,6.0,8.0,-999,-99.99,,,-99.99,,2013-01-21 21:54:00,
2013-01-21 14:04:00,52.0,-99.9,30.12,SE,131,4.0,5.0,-999,-99.99,,,-99.99,,2013-01-21 22:04:00,
2013-01-21 14:13:00,52.0,-99.9,30.12,SE,131,5.0,7.0,-999,-99.99,,,-99.99,,2013-01-21 22:13:00,
2013-01-21 14:24:00,53.0,-99.9,30.12,SE,142,5.0,6.0,-999,-99.99,,,-99.99,,2013-01-21 22:24:00,
2013-01-21 14:33:00,53.0,-99.9,30.11,SE,134,6.0,7.0,-999,-99.99,,,-99.99,,2013-01-21 22:33:00,
2013-01-21 14:43:00,53.0,-99.9,30.11,ESE,119,6.0,7.0,-999,-99.99,,,-99.99,,2013-01-21 22:43:00,
2013-01-21 14:53:00,54.0,-99.9,30.11,ESE,110,7.0,7.0,-999,-99.99,,,-99.99,,2013-01-21 22:53:00,
2013-01-21 15:03:00,54.0,-99.9,30.11,ESE,113,7.0,9.0,-999,-99.99,,,-99.99,,2013-01-21 23:03:00,
2013-01-21 15:13:00,54.0,-99.9,30.11,ESE,109,7.0,8.0,-999,-99.99,,,-99.99,,2013-01-21 23:13:00,
2013-01-21 15:23:00,54.0,-99.9,30.10,ESE,106,8.0,9.0,-999,-99.99,,,-99.99,,2013-01-21 23:23:00,
2013-01-21 15:33:00,55.0,-99.9,30.10,East,98,7.0,10.0,-999,-99.99,,,-99.99,,2013-01-21 23:33:00,
2013-01-21 15:43:00,55.0,-99.9,30.10,East,93,7.0,9.0,-999,-99.99,,,-99.99,,2013-01-21 23:43:00,
2013-01-21 15:53:00,54.0,-99.9,30.10,East,90,6.0,9.0,-999,-99.99,,,-99.99,,2013-01-21 23:53:00,
2013-01-21 16:03:00,54.0,-99.9,30.11,East,94,2.0,6.0,-999,-99.99,,,-99.99,,2013-01-22 00:03:00,
2013-01-21 16:12:00,55.0,-99.9,30.11,ENE,73,3.0,5.0,-999,-99.99,,,-99.99,,2013-01-22 00:12:00,
2013-01-21 16:23:00,55.0,-99.9,30.11,East,87,3.0,5.0,-999,-99.99,,,-99.99,,2013-01-22 00:23:00,
2013-01-21 16:33:00,55.0,-99.9,30.11,East,87,3.0,5.0,-999,-99.99,,,-99.99,,2013-01-22 00:33:00,
2013-01-21 16:43:00,54.0,-99.9,30.11,East,83,2.0,4.0,-999,-99.99,,,-99.99,,2013-01-22 00:43:00,
2013-01-21 16:53:00,54.0,-99.9,30.11,East,85,4.0,6.0,-999,-99.99,,,-99.99,,2013-01-22 00:53:00,
2013-01-21 17:02:00,53.0,-99.9,30.11,East,83,3.0,6.0,-999,-99.99,,,-99.99,,2013-01-22 01:02:00,
2013-01-21 17:12:00,52.0,-99.9,30.11,East,92,5.0,7.0,-999,-99.99,,,-99.99,,2013-01-22 01:12:00,
2013-01-21 17:23:00,51.0,-99.9,30.11,ESE,103,8.0,9.0,-999,-99.99,,,-99.99,,2013-01-22 01:23:00,
2013-01-21 17:33:00,50.0,-99.9,30.11,ESE,105,6.0,8.0,-999,-99.99,,,-99.99,,2013-01-22 01:33:00,
2013-01-21 17:43:00,49.0,-99.9,30.11,ESE,105,8.0,8.0,-999,-99.99,,,-99.99,,2013-01-22 01:43:00,
2013-01-21 17:53:00,48.0,-99.9,30.11,ESE,105,8.0,9.0,-999,-99.99,,,-99.99,,2013-01-22 01:53:00,
2013-01-21 18:03:00,48.0,-99.9,30.12,ESE,111,8.0,9.0,-999,-99.99,,,-99.99,,2013-01-22 02:03:00,
2013-01-21 18:12:00,47.0,-99.9,30.12,ESE,106,6.0,9.0,-999,-99.99,,,-99.99,,2013-01-22 02:12:00,
2013-01-21 18:23:00,47.0,-99.9,30.12,ESE,104,6.0,8.0,-999,-99.99,,,-99.99,,2013-01-22 02:23:00,
2013-01-21 18:33:00,46.0,-99.9,30.11,ESE,115,10.0,11.0,-999,-99.99,,,-99.99,,2013-01-22 02:33:00,
2013-01-21 18:43:00,46.0,-99.9,30.11,ESE,117,9.0,10.0,-999,-99.99,,,-99.99,,2013-01-22 02:43:00,
2013-01-21 18:53:00,46.0,-99.9,30.11,ESE,108,11.0,11.0,-999,-99.99,,,-99.99,,2013-01-22 02:53:00,
2013-01-21 19:03:00,45.0,-99.9,30.10,ESE,110,11.0,12.0,-999,-99.99,,,-99.99,,2013-01-22 03:03:00,
2013-01-21 19:12:00,45.0,-99.9,30.11,ESE,117,10.0,12.0,-999,-99.99,,,-99.99,,2013-01-22 03:12:00,
2013-01-21 19:22:00,44.0,-99.9,30.10,ESE,112,13.0,14.0,-999,-99.99,,,-99.99,,2013-01-22 03:22:00,
2013-01-21 19:33:00,44.0,-99.9,30.10,ESE,116,13.0,14.0,-999,-99.99,,,-99.99,,2013-01-22 03:33:00,
2013-01-21 19:43:00,44.0,-99.9,30.09,ESE,116,14.0,15.0,-999,-99.99,,,-99.99,,2013-01-22 03:43:00,
2013-01-21 19:53:00,43.0,-99.9,30.09,ESE,117,15.0,17.0,-999,-99.99,,,-99.99,,2013-01-22 03:53:00,
2013-01-21 20:03:00,43.0,-99.9,30.09,ESE,115,13.0,15.0,-999,-99.99,,,-99.99,,2013-01-22 04:03:00,
2013-01-21 20:12:00,44.0,-99.9,30.09,ESE,105,13.0,15.0,-999,-99.99,,,-99.99,,2013-01-22 04:12:00,
2013-01-21 20:22:00,43.0,-99.9,30.10,ESE,112,11.0,14.0,-999,-99.99,,,-99.99,,2013-01-22 04:22:00,
2013-01-21 20:33:00,43.0,-99.9,30.10,ESE,111,12.0,14.0,-999,-99.99,,,-99.99,,2013-01-22 04:33:00,
2013-01-21 20:43:00,43.0,-99.9,30.10,ESE,110,13.0,14.0,-999,-99.99,,,-99.99,,2013-01-22 04:43:00,
2013-01-21 20:53:00,43.0,-99.9,30.10,ESE,109,12.0,14.0,-999,-99.99,,,-99.99,,2013-01-22 04:53:00,
2013-01-21 21:05:00,42.0,-99.9,30.09,ESE,111,13.0,15.0,-999,-99.99,,,-99.99,,2013-01-22 05:05:00,
2013-01-21 21:12:00,42.0,-99.9,30.10,ESE,110,14.0,15.0,-999,-99.99,,,-99.99,,2013-01-22 05:12:00,
2013-01-21 21:23:00,42.0,-99.9,30.10,ESE,112,14.0,17.0,-999,-99.99,,,-99.99,,2013-01-22 05:23:00,
2013-01-21 21:33:00,42.0,-99.9,30.10,ESE,112,14.0,17.0,-999,-99.99,,,-99.99,,2013-01-22 05:33:00,
2013-01-21 21:43:00,42.0,-99.9,30.10,ESE,111,13.0,15.0,-999,-99.99,,,-99.99,,2013-01-22 05:43:00,
2013-01-21 21:53:00,41.0,-99.9,30.10,ESE,108,14.0,15.0,-999,-99.99,,,-99.99,,2013-01-22 05:53:00,
2013-01-21 22:02:00,41.0,-99.9,30.10,ESE,111,14.0,15.0,-999,-99.99,,,-99.99,,2013-01-22 06:02:00,
2013-01-21 22:12:00,41.0,-99.9,30.10,ESE,113,14.0,15.0,-999,-99.99,,,-99.99,,2013-01-22 06:12:00,
2013-01-21 22:22:00,41.0,-99.9,30.10,ESE,118,12.0,15.0,-999,-99.99,,,-99.99,,2013-01-22 06:22:00,
2013-01-21 22:33:00,41.0,-99.9,30.09,ESE,109,14.0,16.0,-999,-99.99,,,-99.99,,2013-01-22 06:33:00,
2013-01-21 22:43:00,41.0,-99.9,30.09,ESE,112,15.0,16.0,-999,-99.99,,,-99.99,,2013-01-22 06:43:00,
2013-01-21 22:53:00,41.0,-99.9,30.09,ESE,107,16.0,18.0,-999,-99.99,,,-99.99,,2013-01-22 06:53:00,
2013-01-21 23:03:00,40.0,-99.9,30.08,ESE,106,18.0,19.0,-999,-99.99,,,-99.99,,2013-01-22 07:03:00,
2013-01-21 23:12:00,40.0,-99.9,30.08,ESE,112,15.0,18.0,-999,-99.99,,,-99.99,,2013-01-22 07:12:00,
2013-01-21 23:22:00,40.0,-99.9,30.08,ESE,108,15.0,17.0,-999,-99.99,,,-99.99,,2013-01-22 07:22:00,
2013-01-21 23:33:00,40.0,-99.9,30.07,ESE,110,16.0,18.0,-999,-99.99,,,-99.99,,2013-01-22 07:33:00,
2013-01-21 23:43:00,40.0,-99.9,30.07,ESE,108,17.0,19.0,-999,-99.99,,,-99.99,,2013-01-22 07:43:00,
2013-01-21 23:53:00,41.0,-99.9,30.08,ESE,104,14.0,18.0,-999,-99.99,,,-99.99,,2013-01-22 07:53:00,